Data supplied by UK-AIR on 30/3/2010
All Data GMT hour ending 
Status: R =Ratified P=Provisional,P*=As supplied
,,Manchester South,,,,,,,,,,,,,,,,,,,,,,,
Date,time,"Nitric oxide",status,unit,"Nitrogen dioxide",status,unit,"Nitrogen oxides as nitrogen dioxide",status,unit,"Ozone",status,unit
 
01-01-2009,01:00,18,R,ugm-3,42,R,ugm-3,69,R,ugm-3,2,R,ugm-3
01-01-2009,02:00,14,R,ugm-3,42,R,ugm-3,63,R,ugm-3,2,R,ugm-3
01-01-2009,03:00,13,R,ugm-3,42,R,ugm-3,61,R,ugm-3,2,R,ugm-3
01-01-2009,04:00,16,R,ugm-3,44,R,ugm-3,69,R,ugm-3,2,R,ugm-3
01-01-2009,05:00,18,R,ugm-3,46,R,ugm-3,73,R,ugm-3,2,R,ugm-3
01-01-2009,06:00,23,R,ugm-3,46,R,ugm-3,80,R,ugm-3,2,R,ugm-3
01-01-2009,07:00,44,R,ugm-3,46,R,ugm-3,113,R,ugm-3,2,R,ugm-3
01-01-2009,08:00,80,R,ugm-3,50,R,ugm-3,172,R,ugm-3,2,R,ugm-3
01-01-2009,09:00,65,R,ugm-3,48,R,ugm-3,147,R,ugm-3,2,R,ugm-3
01-01-2009,10:00,88,R,ugm-3,46,R,ugm-3,180,R,ugm-3,2,R,ugm-3
01-01-2009,11:00,116,R,ugm-3,53,R,ugm-3,231,R,ugm-3,2,R,ugm-3
01-01-2009,12:00,93,R,ugm-3,52,R,ugm-3,193,R,ugm-3,4,R,ugm-3
01-01-2009,13:00,103,R,ugm-3,63,R,ugm-3,220,R,ugm-3,4,R,ugm-3
01-01-2009,14:00,99,R,ugm-3,69,R,ugm-3,220,R,ugm-3,2,R,ugm-3
01-01-2009,15:00,61,R,ugm-3,57,R,ugm-3,151,R,ugm-3,2,R,ugm-3
01-01-2009,16:00,55,R,ugm-3,57,R,ugm-3,141,R,ugm-3,2,R,ugm-3
01-01-2009,17:00,86,R,ugm-3,67,R,ugm-3,199,R,ugm-3,2,R,ugm-3
01-01-2009,18:00,138,R,ugm-3,78,R,ugm-3,288,R,ugm-3,2,R,ugm-3
01-01-2009,19:00,145,R,ugm-3,69,R,ugm-3,290,R,ugm-3,2,R,ugm-3
01-01-2009,20:00,196,R,ugm-3,86,R,ugm-3,386,R,ugm-3,2,R,ugm-3
01-01-2009,21:00,253,R,ugm-3,92,R,ugm-3,478,R,ugm-3,2,R,ugm-3
01-01-2009,22:00,290,R,ugm-3,90,R,ugm-3,533,R,ugm-3,2,R,ugm-3
01-01-2009,23:00,274,R,ugm-3,80,R,ugm-3,499,R,ugm-3,2,R,ugm-3
01-01-2009,24:00,251,R,ugm-3,78,R,ugm-3,462,R,ugm-3,2,R,ugm-3
02-01-2009,01:00,238,R,ugm-3,82,R,ugm-3,445,R,ugm-3,2,R,ugm-3
02-01-2009,02:00,179,R,ugm-3,69,R,ugm-3,342,R,ugm-3,2,R,ugm-3
02-01-2009,03:00,145,R,ugm-3,61,R,ugm-3,283,R,ugm-3,2,R,ugm-3
02-01-2009,04:00,88,R,ugm-3,50,R,ugm-3,183,R,ugm-3,2,R,ugm-3
02-01-2009,05:00,46,R,ugm-3,44,R,ugm-3,115,R,ugm-3,2,R,ugm-3
02-01-2009,06:00,44,R,ugm-3,50,R,ugm-3,117,R,ugm-3,2,R,ugm-3
02-01-2009,07:00,13,R,ugm-3,32,R,ugm-3,52,R,ugm-3,14,R,ugm-3
02-01-2009,08:00,10,R,ugm-3,42,R,ugm-3,57,R,ugm-3,8,R,ugm-3
02-01-2009,09:00,14,R,ugm-3,50,R,ugm-3,71,R,ugm-3,8,R,ugm-3
02-01-2009,10:00,11,R,ugm-3,38,R,ugm-3,55,R,ugm-3,16,R,ugm-3
02-01-2009,11:00,16,R,ugm-3,46,R,ugm-3,71,R,ugm-3,12,R,ugm-3
02-01-2009,12:00,16,R,ugm-3,44,R,ugm-3,69,R,ugm-3,12,R,ugm-3
02-01-2009,13:00,14,R,ugm-3,40,R,ugm-3,61,R,ugm-3,18,R,ugm-3
02-01-2009,14:00,9,R,ugm-3,32,R,ugm-3,46,R,ugm-3,26,R,ugm-3
02-01-2009,15:00,6,R,ugm-3,31,R,ugm-3,40,R,ugm-3,26,R,ugm-3
02-01-2009,16:00,16,R,ugm-3,46,R,ugm-3,71,R,ugm-3,18,R,ugm-3
02-01-2009,17:00,24,R,ugm-3,63,R,ugm-3,99,R,ugm-3,4,R,ugm-3
02-01-2009,18:00,20,R,ugm-3,57,R,ugm-3,88,R,ugm-3,6,R,ugm-3
02-01-2009,19:00,20,R,ugm-3,57,R,ugm-3,88,R,ugm-3,4,R,ugm-3
02-01-2009,20:00,21,R,ugm-3,59,R,ugm-3,92,R,ugm-3,2,R,ugm-3
02-01-2009,21:00,49,R,ugm-3,65,R,ugm-3,139,R,ugm-3,2,R,ugm-3
02-01-2009,22:00,64,R,ugm-3,69,R,ugm-3,166,R,ugm-3,2,R,ugm-3
02-01-2009,23:00,59,R,ugm-3,61,R,ugm-3,151,R,ugm-3,6,R,ugm-3
02-01-2009,24:00,11,R,ugm-3,48,R,ugm-3,65,R,ugm-3,10,R,ugm-3
03-01-2009,01:00,23,R,ugm-3,57,R,ugm-3,92,R,ugm-3,2,R,ugm-3
03-01-2009,02:00,4,R,ugm-3,31,R,ugm-3,36,R,ugm-3,24,R,ugm-3
03-01-2009,03:00,5,R,ugm-3,38,R,ugm-3,46,R,ugm-3,12,R,ugm-3
03-01-2009,04:00,3,R,ugm-3,32,R,ugm-3,36,R,ugm-3,14,R,ugm-3
03-01-2009,05:00,9,R,ugm-3,42,R,ugm-3,55,R,ugm-3,6,R,ugm-3
03-01-2009,06:00,9,R,ugm-3,38,R,ugm-3,52,R,ugm-3,8,R,ugm-3
03-01-2009,07:00,14,R,ugm-3,46,R,ugm-3,67,R,ugm-3,6,R,ugm-3
03-01-2009,08:00,39,R,ugm-3,55,R,ugm-3,115,R,ugm-3,2,R,ugm-3
03-01-2009,09:00,54,R,ugm-3,61,R,ugm-3,143,R,ugm-3,2,R,ugm-3
03-01-2009,10:00,49,R,ugm-3,63,R,ugm-3,138,R,ugm-3,4,R,ugm-3
03-01-2009,11:00,21,R,ugm-3,59,R,ugm-3,92,R,ugm-3,6,R,ugm-3
03-01-2009,12:00,11,R,ugm-3,42,R,ugm-3,59,R,ugm-3,22,R,ugm-3
03-01-2009,13:00,4,R,ugm-3,29,R,ugm-3,34,R,ugm-3,32,R,ugm-3
03-01-2009,14:00,1,R,ugm-3,19,R,ugm-3,21,R,ugm-3,40,R,ugm-3
03-01-2009,15:00,18,R,ugm-3,52,R,ugm-3,78,R,ugm-3,12,R,ugm-3
03-01-2009,16:00,4,R,ugm-3,29,R,ugm-3,34,R,ugm-3,32,R,ugm-3
03-01-2009,17:00,1,R,ugm-3,25,R,ugm-3,27,R,ugm-3,34,R,ugm-3
03-01-2009,18:00,0,R,ugm-3,23,R,ugm-3,23,R,ugm-3,36,R,ugm-3
03-01-2009,19:00,0,R,ugm-3,27,R,ugm-3,27,R,ugm-3,36,R,ugm-3
03-01-2009,20:00,4,R,ugm-3,38,R,ugm-3,44,R,ugm-3,24,R,ugm-3
03-01-2009,21:00,20,R,ugm-3,53,R,ugm-3,84,R,ugm-3,2,R,ugm-3
03-01-2009,22:00,14,R,ugm-3,42,R,ugm-3,63,R,ugm-3,2,R,ugm-3
03-01-2009,23:00,5,R,ugm-3,36,R,ugm-3,44,R,ugm-3,8,R,ugm-3
03-01-2009,24:00,3,R,ugm-3,31,R,ugm-3,34,R,ugm-3,10,R,ugm-3
04-01-2009,01:00,3,R,ugm-3,32,R,ugm-3,36,R,ugm-3,12,R,ugm-3
04-01-2009,02:00,1,R,ugm-3,23,R,ugm-3,25,R,ugm-3,18,R,ugm-3
04-01-2009,03:00,1,R,ugm-3,21,R,ugm-3,23,R,ugm-3,20,R,ugm-3
04-01-2009,04:00,1,R,ugm-3,19,R,ugm-3,21,R,ugm-3,24,R,ugm-3
04-01-2009,05:00,1,R,ugm-3,15,R,ugm-3,17,R,ugm-3,28,R,ugm-3
04-01-2009,06:00,1,R,ugm-3,13,R,ugm-3,15,R,ugm-3,32,R,ugm-3
04-01-2009,07:00,1,R,ugm-3,19,R,ugm-3,21,R,ugm-3,28,R,ugm-3
04-01-2009,08:00,1,R,ugm-3,15,R,ugm-3,17,R,ugm-3,26,R,ugm-3
04-01-2009,09:00,0,R,ugm-3,13,R,ugm-3,13,R,ugm-3,28,R,ugm-3
04-01-2009,10:00,1,R,ugm-3,15,R,ugm-3,17,R,ugm-3,28,R,ugm-3
04-01-2009,11:00,1,R,ugm-3,19,R,ugm-3,21,R,ugm-3,24,R,ugm-3
04-01-2009,12:00,4,R,ugm-3,23,R,ugm-3,29,R,ugm-3,18,R,ugm-3
04-01-2009,13:00,4,R,ugm-3,21,R,ugm-3,27,R,ugm-3,16,R,ugm-3
04-01-2009,14:00,5,R,ugm-3,23,R,ugm-3,31,R,ugm-3,14,R,ugm-3
04-01-2009,15:00,6,R,ugm-3,25,R,ugm-3,34,R,ugm-3,10,R,ugm-3
04-01-2009,16:00,6,R,ugm-3,29,R,ugm-3,38,R,ugm-3,10,R,ugm-3
04-01-2009,17:00,8,R,ugm-3,36,R,ugm-3,48,R,ugm-3,4,R,ugm-3
04-01-2009,18:00,5,R,ugm-3,38,R,ugm-3,46,R,ugm-3,8,R,ugm-3
04-01-2009,19:00,5,R,ugm-3,46,R,ugm-3,53,R,ugm-3,4,R,ugm-3
04-01-2009,20:00,11,R,ugm-3,53,R,ugm-3,71,R,ugm-3,2,R,ugm-3
04-01-2009,21:00,11,R,ugm-3,53,R,ugm-3,71,R,ugm-3,2,R,ugm-3
04-01-2009,22:00,6,R,ugm-3,57,R,ugm-3,67,R,ugm-3,4,R,ugm-3
04-01-2009,23:00,15,R,ugm-3,61,R,ugm-3,84,R,ugm-3,2,R,ugm-3
04-01-2009,24:00,20,R,ugm-3,57,R,ugm-3,88,R,ugm-3,2,R,ugm-3
05-01-2009,01:00,19,R,ugm-3,46,R,ugm-3,74,R,ugm-3,0,R,ugm-3
05-01-2009,02:00,23,R,ugm-3,53,R,ugm-3,88,R,ugm-3,0,R,ugm-3
05-01-2009,03:00,26,R,ugm-3,52,R,ugm-3,92,R,ugm-3,2,R,ugm-3
05-01-2009,04:00,34,R,ugm-3,48,R,ugm-3,99,R,ugm-3,2,R,ugm-3
05-01-2009,05:00,68,R,ugm-3,48,R,ugm-3,151,R,ugm-3,0,R,ugm-3
05-01-2009,06:00,36,R,ugm-3,53,R,ugm-3,109,R,ugm-3,2,R,ugm-3
05-01-2009,07:00,14,R,ugm-3,52,R,ugm-3,73,R,ugm-3,10,R,ugm-3
05-01-2009,08:00,10,R,ugm-3,52,R,ugm-3,67,R,ugm-3,12,R,ugm-3
05-01-2009,09:00,13,R,ugm-3,48,R,ugm-3,67,R,ugm-3,18,R,ugm-3
05-01-2009,10:00,8,R,ugm-3,34,R,ugm-3,46,R,ugm-3,28,R,ugm-3
05-01-2009,11:00,9,R,ugm-3,32,R,ugm-3,46,R,ugm-3,30,R,ugm-3
05-01-2009,12:00,6,R,ugm-3,27,R,ugm-3,36,R,ugm-3,32,R,ugm-3
05-01-2009,13:00,5,R,ugm-3,21,R,ugm-3,29,R,ugm-3,34,R,ugm-3
05-01-2009,14:00,4,R,ugm-3,19,R,ugm-3,25,R,ugm-3,40,R,ugm-3
05-01-2009,15:00,5,R,ugm-3,25,R,ugm-3,32,R,ugm-3,36,R,ugm-3
05-01-2009,16:00,5,R,ugm-3,32,R,ugm-3,40,R,ugm-3,30,R,ugm-3
05-01-2009,17:00,8,R,ugm-3,44,R,ugm-3,55,R,ugm-3,24,R,ugm-3
05-01-2009,18:00,16,R,ugm-3,65,R,ugm-3,90,R,ugm-3,12,R,ugm-3
05-01-2009,19:00,29,R,ugm-3,73,R,ugm-3,117,R,ugm-3,8,R,ugm-3
05-01-2009,20:00,24,R,ugm-3,74,R,ugm-3,111,R,ugm-3,4,R,ugm-3
05-01-2009,21:00,19,R,ugm-3,67,R,ugm-3,96,R,ugm-3,6,R,ugm-3
05-01-2009,22:00,18,R,ugm-3,63,R,ugm-3,90,R,ugm-3,4,R,ugm-3
05-01-2009,23:00,64,R,ugm-3,76,R,ugm-3,174,R,ugm-3,2,R,ugm-3
05-01-2009,24:00,83,R,ugm-3,80,R,ugm-3,206,R,ugm-3,2,R,ugm-3
06-01-2009,01:00,79,R,ugm-3,78,R,ugm-3,199,R,ugm-3,2,R,ugm-3
06-01-2009,02:00,71,R,ugm-3,74,R,ugm-3,183,R,ugm-3,2,R,ugm-3
06-01-2009,03:00,85,R,ugm-3,67,R,ugm-3,197,R,ugm-3,2,R,ugm-3
06-01-2009,04:00,73,R,ugm-3,63,R,ugm-3,174,R,ugm-3,2,R,ugm-3
06-01-2009,05:00,64,R,ugm-3,55,R,ugm-3,153,R,ugm-3,2,R,ugm-3
06-01-2009,06:00,53,R,ugm-3,52,R,ugm-3,132,R,ugm-3,2,R,ugm-3
06-01-2009,07:00,26,R,ugm-3,55,R,ugm-3,96,R,ugm-3,2,R,ugm-3
06-01-2009,08:00,98,R,ugm-3,71,R,ugm-3,220,R,ugm-3,2,R,ugm-3
06-01-2009,09:00,185,R,ugm-3,88,R,ugm-3,371,R,ugm-3,2,R,ugm-3
06-01-2009,10:00,263,R,ugm-3,101,R,ugm-3,502,R,ugm-3,2,R,ugm-3
06-01-2009,11:00,165,R,ugm-3,82,R,ugm-3,334,R,ugm-3,4,R,ugm-3
06-01-2009,12:00,,,,,,,,,,8,R,ugm-3
06-01-2009,13:00,104,R,ugm-3,86,R,ugm-3,244,R,ugm-3,6,R,ugm-3
06-01-2009,14:00,135,R,ugm-3,92,R,ugm-3,298,R,ugm-3,6,R,ugm-3
06-01-2009,15:00,84,R,ugm-3,80,R,ugm-3,208,R,ugm-3,4,R,ugm-3
06-01-2009,16:00,83,R,ugm-3,80,R,ugm-3,206,R,ugm-3,4,R,ugm-3
06-01-2009,17:00,101,R,ugm-3,84,R,ugm-3,239,R,ugm-3,4,R,ugm-3
06-01-2009,18:00,85,R,ugm-3,78,R,ugm-3,208,R,ugm-3,4,R,ugm-3
06-01-2009,19:00,78,R,ugm-3,76,R,ugm-3,195,R,ugm-3,4,R,ugm-3
06-01-2009,20:00,40,R,ugm-3,69,R,ugm-3,130,R,ugm-3,2,R,ugm-3
06-01-2009,21:00,48,R,ugm-3,67,R,ugm-3,139,R,ugm-3,2,R,ugm-3
06-01-2009,22:00,40,R,ugm-3,65,R,ugm-3,126,R,ugm-3,2,R,ugm-3
06-01-2009,23:00,30,R,ugm-3,63,R,ugm-3,109,R,ugm-3,2,R,ugm-3
06-01-2009,24:00,18,R,ugm-3,59,R,ugm-3,86,R,ugm-3,2,R,ugm-3
07-01-2009,01:00,10,R,ugm-3,57,R,ugm-3,73,R,ugm-3,2,R,ugm-3
07-01-2009,02:00,8,R,ugm-3,52,R,ugm-3,63,R,ugm-3,2,R,ugm-3
07-01-2009,03:00,5,R,ugm-3,48,R,ugm-3,55,R,ugm-3,4,R,ugm-3
07-01-2009,04:00,10,R,ugm-3,48,R,ugm-3,63,R,ugm-3,2,R,ugm-3
07-01-2009,05:00,11,R,ugm-3,50,R,ugm-3,67,R,ugm-3,2,R,ugm-3
07-01-2009,06:00,13,R,ugm-3,48,R,ugm-3,67,R,ugm-3,2,R,ugm-3
07-01-2009,07:00,14,R,ugm-3,46,R,ugm-3,67,R,ugm-3,2,R,ugm-3
07-01-2009,08:00,20,R,ugm-3,50,R,ugm-3,80,R,ugm-3,2,R,ugm-3
07-01-2009,09:00,20,R,ugm-3,50,R,ugm-3,80,R,ugm-3,2,R,ugm-3
07-01-2009,10:00,39,R,ugm-3,57,R,ugm-3,117,R,ugm-3,2,R,ugm-3
07-01-2009,11:00,43,R,ugm-3,61,R,ugm-3,126,R,ugm-3,4,R,ugm-3
07-01-2009,12:00,34,R,ugm-3,57,R,ugm-3,109,R,ugm-3,4,R,ugm-3
07-01-2009,13:00,23,R,ugm-3,52,R,ugm-3,86,R,ugm-3,6,R,ugm-3
07-01-2009,14:00,18,R,ugm-3,48,R,ugm-3,74,R,ugm-3,6,R,ugm-3
07-01-2009,15:00,19,R,ugm-3,52,R,ugm-3,80,R,ugm-3,6,R,ugm-3
07-01-2009,16:00,13,R,ugm-3,52,R,ugm-3,71,R,ugm-3,6,R,ugm-3
07-01-2009,17:00,16,R,ugm-3,53,R,ugm-3,78,R,ugm-3,4,R,ugm-3
07-01-2009,18:00,9,R,ugm-3,50,R,ugm-3,63,R,ugm-3,6,R,ugm-3
07-01-2009,19:00,14,R,ugm-3,55,R,ugm-3,76,R,ugm-3,2,R,ugm-3
07-01-2009,20:00,23,R,ugm-3,53,R,ugm-3,88,R,ugm-3,2,R,ugm-3
07-01-2009,21:00,28,R,ugm-3,55,R,ugm-3,97,R,ugm-3,2,R,ugm-3
07-01-2009,22:00,9,R,ugm-3,46,R,ugm-3,59,R,ugm-3,4,R,ugm-3
07-01-2009,23:00,4,R,ugm-3,29,R,ugm-3,34,R,ugm-3,16,R,ugm-3
07-01-2009,24:00,5,R,ugm-3,42,R,ugm-3,50,R,ugm-3,6,R,ugm-3
08-01-2009,01:00,6,R,ugm-3,44,R,ugm-3,53,R,ugm-3,2,R,ugm-3
08-01-2009,02:00,4,R,ugm-3,36,R,ugm-3,42,R,ugm-3,6,R,ugm-3
08-01-2009,03:00,6,R,ugm-3,32,R,ugm-3,42,R,ugm-3,10,R,ugm-3
08-01-2009,04:00,3,R,ugm-3,29,R,ugm-3,32,R,ugm-3,10,R,ugm-3
08-01-2009,05:00,6,R,ugm-3,31,R,ugm-3,40,R,ugm-3,10,R,ugm-3
08-01-2009,06:00,3,R,ugm-3,25,R,ugm-3,29,R,ugm-3,14,R,ugm-3
08-01-2009,07:00,5,R,ugm-3,31,R,ugm-3,38,R,ugm-3,10,R,ugm-3
08-01-2009,08:00,8,R,ugm-3,34,R,ugm-3,46,R,ugm-3,6,R,ugm-3
08-01-2009,09:00,8,R,ugm-3,36,R,ugm-3,48,R,ugm-3,12,R,ugm-3
08-01-2009,10:00,15,R,ugm-3,44,R,ugm-3,67,R,ugm-3,10,R,ugm-3
08-01-2009,11:00,16,R,ugm-3,38,R,ugm-3,63,R,ugm-3,14,R,ugm-3
08-01-2009,12:00,10,R,ugm-3,25,R,ugm-3,40,R,ugm-3,24,R,ugm-3
08-01-2009,13:00,5,R,ugm-3,21,R,ugm-3,29,R,ugm-3,30,R,ugm-3
08-01-2009,14:00,5,R,ugm-3,23,R,ugm-3,31,R,ugm-3,30,R,ugm-3
08-01-2009,15:00,4,R,ugm-3,23,R,ugm-3,29,R,ugm-3,26,R,ugm-3
08-01-2009,16:00,9,R,ugm-3,42,R,ugm-3,55,R,ugm-3,14,R,ugm-3
08-01-2009,17:00,83,R,ugm-3,67,R,ugm-3,193,R,ugm-3,4,R,ugm-3
08-01-2009,18:00,151,R,ugm-3,78,R,ugm-3,309,R,ugm-3,2,R,ugm-3
08-01-2009,19:00,36,R,ugm-3,53,R,ugm-3,109,R,ugm-3,4,R,ugm-3
08-01-2009,20:00,16,R,ugm-3,48,R,ugm-3,73,R,ugm-3,4,R,ugm-3
08-01-2009,21:00,28,R,ugm-3,48,R,ugm-3,90,R,ugm-3,4,R,ugm-3
08-01-2009,22:00,9,R,ugm-3,40,R,ugm-3,53,R,ugm-3,4,R,ugm-3
08-01-2009,23:00,15,R,ugm-3,42,R,ugm-3,65,R,ugm-3,2,R,ugm-3
08-01-2009,24:00,10,R,ugm-3,38,R,ugm-3,53,R,ugm-3,2,R,ugm-3
09-01-2009,01:00,5,R,ugm-3,32,R,ugm-3,40,R,ugm-3,4,R,ugm-3
09-01-2009,02:00,3,R,ugm-3,23,R,ugm-3,27,R,ugm-3,14,R,ugm-3
09-01-2009,03:00,3,R,ugm-3,23,R,ugm-3,27,R,ugm-3,16,R,ugm-3
09-01-2009,04:00,1,R,ugm-3,19,R,ugm-3,21,R,ugm-3,20,R,ugm-3
09-01-2009,05:00,3,R,ugm-3,21,R,ugm-3,25,R,ugm-3,16,R,ugm-3
09-01-2009,06:00,3,R,ugm-3,23,R,ugm-3,27,R,ugm-3,18,R,ugm-3
09-01-2009,07:00,4,R,ugm-3,27,R,ugm-3,32,R,ugm-3,18,R,ugm-3
09-01-2009,08:00,6,R,ugm-3,32,R,ugm-3,42,R,ugm-3,14,R,ugm-3
09-01-2009,09:00,10,R,ugm-3,38,R,ugm-3,53,R,ugm-3,10,R,ugm-3
09-01-2009,10:00,6,R,ugm-3,27,R,ugm-3,36,R,ugm-3,18,R,ugm-3
09-01-2009,11:00,4,R,ugm-3,21,R,ugm-3,27,R,ugm-3,18,R,ugm-3
09-01-2009,12:00,4,R,ugm-3,29,R,ugm-3,34,R,ugm-3,14,R,ugm-3
09-01-2009,13:00,4,R,ugm-3,21,R,ugm-3,27,R,ugm-3,22,R,ugm-3
09-01-2009,14:00,3,R,ugm-3,19,R,ugm-3,23,R,ugm-3,26,R,ugm-3
09-01-2009,15:00,6,R,ugm-3,32,R,ugm-3,42,R,ugm-3,18,R,ugm-3
09-01-2009,16:00,24,R,ugm-3,52,R,ugm-3,88,R,ugm-3,6,R,ugm-3
09-01-2009,17:00,109,R,ugm-3,80,R,ugm-3,246,R,ugm-3,2,R,ugm-3
09-01-2009,18:00,209,R,ugm-3,97,R,ugm-3,416,R,ugm-3,2,R,ugm-3
09-01-2009,19:00,214,R,ugm-3,94,R,ugm-3,420,R,ugm-3,2,R,ugm-3
09-01-2009,20:00,173,R,ugm-3,90,R,ugm-3,353,R,ugm-3,2,R,ugm-3
09-01-2009,21:00,110,R,ugm-3,73,R,ugm-3,241,R,ugm-3,2,R,ugm-3
09-01-2009,22:00,46,R,ugm-3,55,R,ugm-3,126,R,ugm-3,2,R,ugm-3
09-01-2009,23:00,21,R,ugm-3,53,R,ugm-3,86,R,ugm-3,2,R,ugm-3
09-01-2009,24:00,19,R,ugm-3,52,R,ugm-3,80,R,ugm-3,2,R,ugm-3
10-01-2009,01:00,21,R,ugm-3,50,R,ugm-3,82,R,ugm-3,2,R,ugm-3
10-01-2009,02:00,16,R,ugm-3,50,R,ugm-3,74,R,ugm-3,2,R,ugm-3
10-01-2009,03:00,9,R,ugm-3,50,R,ugm-3,63,R,ugm-3,2,R,ugm-3
10-01-2009,04:00,5,R,ugm-3,48,R,ugm-3,55,R,ugm-3,4,R,ugm-3
10-01-2009,05:00,6,R,ugm-3,44,R,ugm-3,53,R,ugm-3,4,R,ugm-3
10-01-2009,06:00,4,R,ugm-3,34,R,ugm-3,40,R,ugm-3,10,R,ugm-3
10-01-2009,07:00,6,R,ugm-3,40,R,ugm-3,50,R,ugm-3,6,R,ugm-3
10-01-2009,08:00,5,R,ugm-3,38,R,ugm-3,46,R,ugm-3,6,R,ugm-3
10-01-2009,09:00,6,R,ugm-3,36,R,ugm-3,46,R,ugm-3,6,R,ugm-3
10-01-2009,10:00,8,R,ugm-3,32,R,ugm-3,44,R,ugm-3,12,R,ugm-3
10-01-2009,11:00,5,R,ugm-3,27,R,ugm-3,34,R,ugm-3,12,R,ugm-3
10-01-2009,12:00,6,R,ugm-3,25,R,ugm-3,34,R,ugm-3,12,R,ugm-3
10-01-2009,13:00,5,R,ugm-3,23,R,ugm-3,31,R,ugm-3,10,R,ugm-3
10-01-2009,14:00,5,R,ugm-3,29,R,ugm-3,36,R,ugm-3,10,R,ugm-3
10-01-2009,15:00,3,R,ugm-3,25,R,ugm-3,29,R,ugm-3,14,R,ugm-3
10-01-2009,16:00,3,R,ugm-3,27,R,ugm-3,31,R,ugm-3,8,R,ugm-3
10-01-2009,17:00,3,R,ugm-3,25,R,ugm-3,29,R,ugm-3,8,R,ugm-3
10-01-2009,18:00,1,R,ugm-3,25,R,ugm-3,27,R,ugm-3,6,R,ugm-3
10-01-2009,19:00,1,R,ugm-3,25,R,ugm-3,27,R,ugm-3,6,R,ugm-3
10-01-2009,20:00,1,R,ugm-3,23,R,ugm-3,25,R,ugm-3,10,R,ugm-3
10-01-2009,21:00,1,R,ugm-3,21,R,ugm-3,23,R,ugm-3,10,R,ugm-3
10-01-2009,22:00,1,R,ugm-3,19,R,ugm-3,21,R,ugm-3,10,R,ugm-3
10-01-2009,23:00,1,R,ugm-3,17,R,ugm-3,19,R,ugm-3,12,R,ugm-3
10-01-2009,24:00,0,R,ugm-3,15,R,ugm-3,15,R,ugm-3,14,R,ugm-3
11-01-2009,01:00,0,R,ugm-3,13,R,ugm-3,13,R,ugm-3,16,R,ugm-3
11-01-2009,02:00,0,R,ugm-3,13,R,ugm-3,13,R,ugm-3,18,R,ugm-3
11-01-2009,03:00,0,R,ugm-3,11,R,ugm-3,11,R,ugm-3,20,R,ugm-3
11-01-2009,04:00,0,R,ugm-3,13,R,ugm-3,13,R,ugm-3,20,R,ugm-3
11-01-2009,05:00,0,R,ugm-3,13,R,ugm-3,13,R,ugm-3,18,R,ugm-3
11-01-2009,06:00,0,R,ugm-3,13,R,ugm-3,13,R,ugm-3,18,R,ugm-3
11-01-2009,07:00,0,R,ugm-3,13,R,ugm-3,13,R,ugm-3,18,R,ugm-3
11-01-2009,08:00,0,R,ugm-3,13,R,ugm-3,13,R,ugm-3,18,R,ugm-3
11-01-2009,09:00,0,R,ugm-3,13,R,ugm-3,13,R,ugm-3,24,R,ugm-3
11-01-2009,10:00,0,R,ugm-3,13,R,ugm-3,13,R,ugm-3,22,R,ugm-3
11-01-2009,11:00,1,R,ugm-3,13,R,ugm-3,15,R,ugm-3,24,R,ugm-3
11-01-2009,12:00,1,R,ugm-3,13,R,ugm-3,15,R,ugm-3,22,R,ugm-3
11-01-2009,13:00,1,R,ugm-3,13,R,ugm-3,15,R,ugm-3,24,R,ugm-3
11-01-2009,14:00,0,R,ugm-3,13,R,ugm-3,13,R,ugm-3,22,R,ugm-3
11-01-2009,15:00,0,R,ugm-3,13,R,ugm-3,13,R,ugm-3,22,R,ugm-3
11-01-2009,16:00,0,R,ugm-3,13,R,ugm-3,13,R,ugm-3,26,R,ugm-3
11-01-2009,17:00,1,R,ugm-3,17,R,ugm-3,19,R,ugm-3,26,R,ugm-3
11-01-2009,18:00,1,R,ugm-3,19,R,ugm-3,21,R,ugm-3,26,R,ugm-3
11-01-2009,19:00,1,R,ugm-3,15,R,ugm-3,17,R,ugm-3,28,R,ugm-3
11-01-2009,20:00,1,R,ugm-3,13,R,ugm-3,15,R,ugm-3,22,R,ugm-3
11-01-2009,21:00,1,R,ugm-3,13,R,ugm-3,15,R,ugm-3,22,R,ugm-3
11-01-2009,22:00,0,R,ugm-3,15,R,ugm-3,15,R,ugm-3,22,R,ugm-3
11-01-2009,23:00,1,R,ugm-3,13,R,ugm-3,15,R,ugm-3,22,R,ugm-3
11-01-2009,24:00,0,R,ugm-3,13,R,ugm-3,13,R,ugm-3,20,R,ugm-3
12-01-2009,01:00,1,R,ugm-3,11,R,ugm-3,13,R,ugm-3,20,R,ugm-3
12-01-2009,02:00,0,R,ugm-3,11,R,ugm-3,11,R,ugm-3,26,R,ugm-3
12-01-2009,03:00,1,R,ugm-3,10,R,ugm-3,11,R,ugm-3,22,R,ugm-3
12-01-2009,04:00,1,R,ugm-3,10,R,ugm-3,11,R,ugm-3,22,R,ugm-3
12-01-2009,05:00,1,R,ugm-3,10,R,ugm-3,11,R,ugm-3,26,R,ugm-3
12-01-2009,06:00,1,R,ugm-3,11,R,ugm-3,13,R,ugm-3,20,R,ugm-3
12-01-2009,07:00,1,R,ugm-3,11,R,ugm-3,13,R,ugm-3,18,R,ugm-3
12-01-2009,08:00,1,R,ugm-3,11,R,ugm-3,13,R,ugm-3,22,R,ugm-3
12-01-2009,09:00,1,R,ugm-3,13,R,ugm-3,15,R,ugm-3,24,R,ugm-3
12-01-2009,10:00,1,R,ugm-3,15,R,ugm-3,17,R,ugm-3,24,R,ugm-3
12-01-2009,11:00,3,R,ugm-3,17,R,ugm-3,21,R,ugm-3,24,R,ugm-3
12-01-2009,12:00,3,R,ugm-3,15,R,ugm-3,19,R,ugm-3,34,R,ugm-3
12-01-2009,13:00,3,R,ugm-3,17,R,ugm-3,21,R,ugm-3,36,R,ugm-3
12-01-2009,14:00,3,R,ugm-3,15,R,ugm-3,19,R,ugm-3,32,R,ugm-3
12-01-2009,15:00,3,R,ugm-3,15,R,ugm-3,19,R,ugm-3,30,R,ugm-3
12-01-2009,16:00,3,R,ugm-3,23,R,ugm-3,27,R,ugm-3,26,R,ugm-3
12-01-2009,17:00,3,R,ugm-3,23,R,ugm-3,27,R,ugm-3,26,R,ugm-3
12-01-2009,18:00,4,R,ugm-3,25,R,ugm-3,31,R,ugm-3,28,R,ugm-3
12-01-2009,19:00,4,R,ugm-3,21,R,ugm-3,27,R,ugm-3,30,R,ugm-3
12-01-2009,20:00,3,R,ugm-3,19,R,ugm-3,23,R,ugm-3,30,R,ugm-3
12-01-2009,21:00,3,R,ugm-3,19,R,ugm-3,23,R,ugm-3,34,R,ugm-3
12-01-2009,22:00,3,R,ugm-3,17,R,ugm-3,21,R,ugm-3,32,R,ugm-3
12-01-2009,23:00,1,R,ugm-3,11,R,ugm-3,13,R,ugm-3,40,R,ugm-3
12-01-2009,24:00,1,R,ugm-3,10,R,ugm-3,11,R,ugm-3,40,R,ugm-3
13-01-2009,01:00,1,R,ugm-3,10,R,ugm-3,11,R,ugm-3,38,R,ugm-3
13-01-2009,02:00,1,R,ugm-3,11,R,ugm-3,13,R,ugm-3,38,R,ugm-3
13-01-2009,03:00,1,R,ugm-3,10,R,ugm-3,11,R,ugm-3,42,R,ugm-3
13-01-2009,04:00,1,R,ugm-3,10,R,ugm-3,11,R,ugm-3,40,R,ugm-3
13-01-2009,05:00,1,R,ugm-3,8,R,ugm-3,10,R,ugm-3,38,R,ugm-3
13-01-2009,06:00,1,R,ugm-3,8,R,ugm-3,10,R,ugm-3,42,R,ugm-3
13-01-2009,07:00,1,R,ugm-3,11,R,ugm-3,13,R,ugm-3,40,R,ugm-3
13-01-2009,08:00,1,R,ugm-3,17,R,ugm-3,19,R,ugm-3,34,R,ugm-3
13-01-2009,09:00,3,R,ugm-3,27,R,ugm-3,31,R,ugm-3,24,R,ugm-3
13-01-2009,10:00,8,R,ugm-3,36,R,ugm-3,48,R,ugm-3,18,R,ugm-3
13-01-2009,11:00,6,R,ugm-3,32,R,ugm-3,42,R,ugm-3,20,R,ugm-3
13-01-2009,12:00,10,R,ugm-3,38,R,ugm-3,53,R,ugm-3,14,R,ugm-3
13-01-2009,13:00,8,R,ugm-3,42,R,ugm-3,53,R,ugm-3,16,R,ugm-3
13-01-2009,14:00,6,R,ugm-3,34,R,ugm-3,44,R,ugm-3,28,R,ugm-3
13-01-2009,15:00,6,R,ugm-3,40,R,ugm-3,50,R,ugm-3,28,R,ugm-3
13-01-2009,16:00,4,R,ugm-3,38,R,ugm-3,44,R,ugm-3,26,R,ugm-3
13-01-2009,17:00,6,R,ugm-3,50,R,ugm-3,59,R,ugm-3,14,R,ugm-3
13-01-2009,18:00,6,R,ugm-3,52,R,ugm-3,61,R,ugm-3,12,R,ugm-3
13-01-2009,19:00,9,R,ugm-3,50,R,ugm-3,63,R,ugm-3,8,R,ugm-3
13-01-2009,20:00,16,R,ugm-3,53,R,ugm-3,78,R,ugm-3,4,R,ugm-3
13-01-2009,21:00,18,R,ugm-3,57,R,ugm-3,84,R,ugm-3,2,R,ugm-3
13-01-2009,22:00,20,R,ugm-3,53,R,ugm-3,84,R,ugm-3,2,R,ugm-3
13-01-2009,23:00,16,R,ugm-3,44,R,ugm-3,69,R,ugm-3,4,R,ugm-3
13-01-2009,24:00,4,R,ugm-3,38,R,ugm-3,44,R,ugm-3,8,R,ugm-3
14-01-2009,01:00,3,R,ugm-3,27,R,ugm-3,31,R,ugm-3,14,R,ugm-3
14-01-2009,02:00,4,R,ugm-3,29,R,ugm-3,34,R,ugm-3,12,R,ugm-3
14-01-2009,03:00,3,R,ugm-3,17,R,ugm-3,21,R,ugm-3,20,R,ugm-3
14-01-2009,04:00,1,R,ugm-3,17,R,ugm-3,19,R,ugm-3,18,R,ugm-3
14-01-2009,05:00,3,R,ugm-3,17,R,ugm-3,21,R,ugm-3,18,R,ugm-3
14-01-2009,06:00,5,R,ugm-3,27,R,ugm-3,34,R,ugm-3,12,R,ugm-3
14-01-2009,07:00,8,R,ugm-3,31,R,ugm-3,42,R,ugm-3,10,R,ugm-3
14-01-2009,08:00,5,R,ugm-3,25,R,ugm-3,32,R,ugm-3,16,R,ugm-3
14-01-2009,09:00,15,R,ugm-3,44,R,ugm-3,67,R,ugm-3,6,R,ugm-3
14-01-2009,10:00,18,R,ugm-3,42,R,ugm-3,69,R,ugm-3,12,R,ugm-3
14-01-2009,11:00,11,R,ugm-3,34,R,ugm-3,52,R,ugm-3,22,R,ugm-3
14-01-2009,12:00,6,R,ugm-3,23,R,ugm-3,32,R,ugm-3,32,R,ugm-3
14-01-2009,13:00,4,R,ugm-3,15,R,ugm-3,21,R,ugm-3,36,R,ugm-3
14-01-2009,14:00,3,R,ugm-3,15,R,ugm-3,19,R,ugm-3,34,R,ugm-3
14-01-2009,15:00,,,,,,,,,,,,
14-01-2009,16:00,,,,,,,,,,,,
14-01-2009,17:00,10,R,ugm-3,38,R,ugm-3,53,R,ugm-3,12,R,ugm-3
14-01-2009,18:00,4,R,ugm-3,32,R,ugm-3,38,R,ugm-3,14,R,ugm-3
14-01-2009,19:00,4,R,ugm-3,27,R,ugm-3,32,R,ugm-3,12,R,ugm-3
14-01-2009,20:00,3,R,ugm-3,21,R,ugm-3,25,R,ugm-3,12,R,ugm-3
14-01-2009,21:00,1,R,ugm-3,19,R,ugm-3,21,R,ugm-3,12,R,ugm-3
14-01-2009,22:00,1,R,ugm-3,21,R,ugm-3,23,R,ugm-3,10,R,ugm-3
14-01-2009,23:00,1,R,ugm-3,19,R,ugm-3,21,R,ugm-3,12,R,ugm-3
14-01-2009,24:00,1,R,ugm-3,17,R,ugm-3,19,R,ugm-3,14,R,ugm-3
15-01-2009,01:00,1,R,ugm-3,17,R,ugm-3,19,R,ugm-3,14,R,ugm-3
15-01-2009,02:00,1,R,ugm-3,13,R,ugm-3,15,R,ugm-3,16,R,ugm-3
15-01-2009,03:00,1,R,ugm-3,11,R,ugm-3,13,R,ugm-3,18,R,ugm-3
15-01-2009,04:00,1,R,ugm-3,11,R,ugm-3,13,R,ugm-3,18,R,ugm-3
15-01-2009,05:00,1,R,ugm-3,11,R,ugm-3,13,R,ugm-3,20,R,ugm-3
15-01-2009,06:00,1,R,ugm-3,11,R,ugm-3,13,R,ugm-3,18,R,ugm-3
15-01-2009,07:00,1,R,ugm-3,11,R,ugm-3,13,R,ugm-3,18,R,ugm-3
15-01-2009,08:00,1,R,ugm-3,13,R,ugm-3,15,R,ugm-3,16,R,ugm-3
15-01-2009,09:00,3,R,ugm-3,17,R,ugm-3,21,R,ugm-3,14,R,ugm-3
15-01-2009,10:00,3,R,ugm-3,17,R,ugm-3,21,R,ugm-3,14,R,ugm-3
15-01-2009,11:00,1,R,ugm-3,17,R,ugm-3,19,R,ugm-3,14,R,ugm-3
15-01-2009,12:00,1,R,ugm-3,17,R,ugm-3,19,R,ugm-3,14,R,ugm-3
15-01-2009,13:00,3,R,ugm-3,17,R,ugm-3,21,R,ugm-3,14,R,ugm-3
15-01-2009,14:00,3,R,ugm-3,19,R,ugm-3,23,R,ugm-3,16,R,ugm-3
15-01-2009,15:00,3,R,ugm-3,19,R,ugm-3,23,R,ugm-3,16,R,ugm-3
15-01-2009,16:00,3,R,ugm-3,19,R,ugm-3,23,R,ugm-3,14,R,ugm-3
15-01-2009,17:00,3,R,ugm-3,21,R,ugm-3,25,R,ugm-3,16,R,ugm-3
15-01-2009,18:00,3,R,ugm-3,21,R,ugm-3,25,R,ugm-3,14,R,ugm-3
15-01-2009,19:00,3,R,ugm-3,21,R,ugm-3,25,R,ugm-3,14,R,ugm-3
15-01-2009,20:00,1,R,ugm-3,21,R,ugm-3,23,R,ugm-3,14,R,ugm-3
15-01-2009,21:00,1,R,ugm-3,19,R,ugm-3,21,R,ugm-3,14,R,ugm-3
15-01-2009,22:00,1,R,ugm-3,17,R,ugm-3,19,R,ugm-3,16,R,ugm-3
15-01-2009,23:00,1,R,ugm-3,17,R,ugm-3,19,R,ugm-3,18,R,ugm-3
15-01-2009,24:00,1,R,ugm-3,17,R,ugm-3,19,R,ugm-3,18,R,ugm-3
16-01-2009,01:00,1,R,ugm-3,15,R,ugm-3,17,R,ugm-3,20,R,ugm-3
16-01-2009,02:00,1,R,ugm-3,15,R,ugm-3,17,R,ugm-3,20,R,ugm-3
16-01-2009,03:00,1,R,ugm-3,13,R,ugm-3,15,R,ugm-3,24,R,ugm-3
16-01-2009,04:00,1,R,ugm-3,13,R,ugm-3,15,R,ugm-3,24,R,ugm-3
16-01-2009,05:00,1,R,ugm-3,13,R,ugm-3,15,R,ugm-3,20,R,ugm-3
16-01-2009,06:00,1,R,ugm-3,13,R,ugm-3,15,R,ugm-3,20,R,ugm-3
16-01-2009,07:00,1,R,ugm-3,17,R,ugm-3,19,R,ugm-3,18,R,ugm-3
16-01-2009,08:00,3,R,ugm-3,19,R,ugm-3,23,R,ugm-3,16,R,ugm-3
16-01-2009,09:00,3,R,ugm-3,21,R,ugm-3,25,R,ugm-3,12,R,ugm-3
16-01-2009,10:00,3,R,ugm-3,21,R,ugm-3,25,R,ugm-3,16,R,ugm-3
16-01-2009,11:00,1,R,ugm-3,17,R,ugm-3,19,R,ugm-3,20,R,ugm-3
16-01-2009,12:00,3,R,ugm-3,19,R,ugm-3,23,R,ugm-3,24,R,ugm-3
16-01-2009,13:00,1,R,ugm-3,19,R,ugm-3,21,R,ugm-3,20,R,ugm-3
16-01-2009,14:00,1,R,ugm-3,17,R,ugm-3,19,R,ugm-3,20,R,ugm-3
16-01-2009,15:00,1,R,ugm-3,17,R,ugm-3,19,R,ugm-3,26,R,ugm-3
16-01-2009,16:00,1,R,ugm-3,21,R,ugm-3,23,R,ugm-3,24,R,ugm-3
16-01-2009,17:00,1,R,ugm-3,21,R,ugm-3,23,R,ugm-3,20,R,ugm-3
16-01-2009,18:00,1,R,ugm-3,23,R,ugm-3,25,R,ugm-3,18,R,ugm-3
16-01-2009,19:00,1,R,ugm-3,21,R,ugm-3,23,R,ugm-3,20,R,ugm-3
16-01-2009,20:00,1,R,ugm-3,19,R,ugm-3,21,R,ugm-3,16,R,ugm-3
16-01-2009,21:00,1,R,ugm-3,17,R,ugm-3,19,R,ugm-3,18,R,ugm-3
16-01-2009,22:00,1,R,ugm-3,15,R,ugm-3,17,R,ugm-3,18,R,ugm-3
16-01-2009,23:00,1,R,ugm-3,15,R,ugm-3,17,R,ugm-3,20,R,ugm-3
16-01-2009,24:00,1,R,ugm-3,13,R,ugm-3,15,R,ugm-3,22,R,ugm-3
17-01-2009,01:00,1,R,ugm-3,13,R,ugm-3,15,R,ugm-3,20,R,ugm-3
17-01-2009,02:00,1,R,ugm-3,10,R,ugm-3,11,R,ugm-3,24,R,ugm-3
17-01-2009,03:00,1,R,ugm-3,11,R,ugm-3,13,R,ugm-3,24,R,ugm-3
17-01-2009,04:00,0,R,ugm-3,11,R,ugm-3,11,R,ugm-3,28,R,ugm-3
17-01-2009,05:00,0,R,ugm-3,13,R,ugm-3,13,R,ugm-3,24,R,ugm-3
17-01-2009,06:00,1,R,ugm-3,11,R,ugm-3,13,R,ugm-3,28,R,ugm-3
17-01-2009,07:00,0,R,ugm-3,11,R,ugm-3,11,R,ugm-3,34,R,ugm-3
17-01-2009,08:00,1,R,ugm-3,19,R,ugm-3,21,R,ugm-3,38,R,ugm-3
17-01-2009,09:00,1,R,ugm-3,23,R,ugm-3,25,R,ugm-3,40,R,ugm-3
17-01-2009,10:00,3,R,ugm-3,29,R,ugm-3,32,R,ugm-3,32,R,ugm-3
17-01-2009,11:00,4,R,ugm-3,21,R,ugm-3,27,R,ugm-3,34,R,ugm-3